#timestamp,LO_Frequency,Hit,StdDev 
1571641215.4,286046994.6,N
1571641235.3,286046995.6,N
1571641255.1,286046991.9,N
1571641275.9,286046993.9,N
1571641295.7,286046998.4,N
1571641315.5,286046998.9,N
1571641335.4,286046999.0,N
1571641355.2,286047000.8,N
1571641375.0,286046999.4,N
1571641375.9,286046999.4,N
1571641395.8,286046999.1,N
1571641415.6,286046998.0,N
1571641435.5,286046993.7,N
1571641455.3,286046992.4,N
1571641475.1,286046993.2,N
1571641495.9,286046994.5,N
1571641515.7,286046996.4,N
1571641535.5,286046995.1,N
1571641555.4,286047000.3,N
1571641575.2,286047000.1,N
1571641595.1,286046998.7,N
1571641596.0,286046998.7,N
1571641615.8,286047000.7,N
1571641635.6,286046996.8,N
1571641655.5,286047000.9,N
1571641675.3,286047001.2,N
1571641695.1,286047002.1,N
1571641715.9,286047002.3,N
1571641735.7,286047002.6,N
1571641755.6,286047001.4,N
1571641775.4,286047006.0,N
1571641795.2,286047005.5,N
1571641815.1,286047005.2,N
1571641816.0,286047005.2,N
1571641835.8,286047006.4,N
1571641855.6,286047007.6,N
1571641875.5,286047004.8,N
1571641895.3,286047007.2,N
1571641915.2,286047006.5,N
1571641935.9,286047007.1,N
1571641955.7,286047005.7,N
1571641975.6,286047003.2,N
1571641995.4,286047001.3,N
1571642015.2,286047005.7,N
1571642035.1,286047003.2,N
1571642036.0,286047003.2,N
1571642055.8,286047004.8,N
1571642075.7,286047006.3,N
1571642095.5,286047006.9,N
1571642115.3,286047004.7,N
1571642135.2,286047005.5,N
1571642155.0,286047004.7,N
1571642155.9,286047004.7,N
1571642175.7,286047004.6,N
1571642195.6,286047010.8,Y
1571642215.4,286047003.2,P
1571642235.3,286046998.6,N
1571642255.1,286046998.6,N
1571642275.8,286047000.8,N
1571642295.7,286047000.4,N
1571642315.5,286046998.7,N
1571642335.4,286046999.3,N
1571642355.2,286046998.6,N
1571642375.0,286047002.2,N
1571642375.9,286047002.2,N
1571642395.8,286046999.4,N
1571642415.6,286046997.2,N
1571642435.4,286046993.5,Y
1571642455.3,286046995.8,P
1571642475.1,286046993.6,N
1571642495.9,286046993.4,N
1571642515.7,286046994.5,N
1571642535.5,286046998.6,N
1571642555.4,286046998.4,N
1571642575.2,286047004.0,N
1571642595.0,286047002.3,N
1571642595.9,286047002.3,N
1571642615.8,286046998.4,N
1571642635.6,286047000.1,N
1571642655.5,286046996.8,N
1571642675.3,286047001.2,N
1571642695.1,286046997.9,N
1571642715.9,286046997.6,N
1571642735.7,286046998.9,N
1571642755.5,286046997.5,N
1571642775.4,286047000.3,N
1571642795.2,286047000.2,N
1571642815.1,286046998.6,N
1571642816.0,286046998.6,N
1571642835.8,286047001.0,N
1571642855.6,286046998.1,N
1571642875.5,286047001.2,N
1571642895.3,286046996.8,N
1571642915.1,286047000.4,N
1571642935.9,286046999.2,N
1571642955.7,286046997.7,N
1571642975.6,286046996.9,N
1571642995.4,286046995.2,N
1571643015.2,286046994.9,N
1571643035.1,286046993.3,N
1571643036.0,286046993.3,N
1571643055.8,286046995.9,N
1571643075.6,286046996.3,N
1571643095.5,286046995.5,N
1571643115.3,286046997.4,N
1571643135.2,286046998.7,N
1571643155.9,286046999.2,N
1571643175.7,286046995.8,N
1571643195.6,286046993.2,Y
1571643215.4,286046993.9,P
1571643235.2,286046994.2,N
1571643255.1,286046998.0,N
1571643256.0,286046998.0,N
1571643275.8,286046994.1,Y
1571643295.7,286046997.4,P
1571643315.5,286046998.4,P
1571643335.3,286046999.3,N
1571643355.2,286046995.0,Y
1571643375.0,286047000.2,P
1571643375.9,286047000.2,N
1571643395.8,286046998.8,N
1571643415.6,286046999.5,N
1571643435.4,286046997.7,N
1571643455.3,286046999.5,N
1571643475.1,286046997.3,N
1571643495.8,286046998.9,N
1571643515.7,286046999.9,N
1571643535.5,286047001.1,N
1571643555.4,286047002.2,N
1571643575.2,286046998.1,N
1571643595.0,286046999.7,N
1571643595.9,286046999.7,N
1571643615.8,286046998.8,N
1571643635.6,286046998.9,N
1571643655.4,286046999.1,N
1571643675.3,286046993.3,Y
1571643695.1,286046995.8,P
1571643715.9,286046996.1,N
1571643735.7,286046993.4,P
1571643755.5,286046994.1,N
1571643775.4,286046993.4,Y
1571643795.2,286047004.4,P
1571643815.0,286047005.4,N
1571643816.0,286047005.4,N
1571643835.8,286047002.7,N
1571643855.6,286046998.3,N
1571643875.5,286046999.8,N
1571643895.3,286047000.4,N
1571643915.1,286047001.8,N
1571643935.9,286047001.6,N
1571643955.7,286046998.1,N
1571643975.6,286046998.3,N
1571643995.4,286047001.1,N
1571644015.2,286047000.6,N
1571644035.1,286046996.8,N
1571644036.0,286046996.8,N
1571644055.8,286046999.0,N
1571644075.6,286046998.8,N
1571644095.5,286046999.6,N
1571644115.3,286046999.2,N
1571644135.1,286046999.1,N
1571644155.9,286047001.1,N
1571644175.7,286046998.1,N
1571644195.6,286047002.5,N
1571644215.4,286047003.7,N
1571644235.2,286047002.1,N
1571644255.1,286047003.2,N
1571644256.0,286047003.2,N
1571644275.8,286047003.1,N
1571644295.6,286047007.4,N
1571644315.5,286047010.8,Y
1571644335.3,286047011.1,P
1571644355.2,286047013.5,N
1571644375.9,286047013.3,N
1571644395.7,286047013.3,N
1571644415.6,286047015.1,Y
1571644435.4,286047005.8,P
1571644455.3,286047004.9,N
1571644475.1,286047006.6,N
1571644476.0,286047006.6,Y
1571644495.8,286047004.2,P
1571644515.7,286047003.9,N
1571644535.5,286047006.3,P
1571644555.3,286047005.2,Y
1571644575.2,286046997.3,P
1571644595.0,286046996.1,N
1571644595.9,286046996.1,N
1571644615.8,286046996.8,N
1571644635.6,286046999.1,N
1571644655.4,286046993.9,N
1571644675.3,286046992.8,N
1571644695.1,286046990.4,N
1571644715.8,286046993.2,N
1571644735.7,286046995.5,N
1571644755.5,286046992.1,N
1571644775.4,286046992.1,N
1571644795.2,286046990.2,N
